Regional Weather Roundup
Issued by NWS

Home | Current Version | Previous Version | Text Only | Print | Product List | Glossary Off
Versions: 1 2 3 4 5 6 7 8 9 10 11 12 13 14 15 16 17 18 19 20 21 22 23 24 25 26 27 28 29 30 31 32 33 34 35 36 37 38 39 40 41 42 43 44 45 46 47 48 49 50

071
ASUS43 KMPX 271110
RWRMN
WEATHER ROUNDUP FOR MINNESOTA
NATIONAL WEATHER SERVICE TWIN CITIES/CHANHASSEN MN
600 AM CDT SAT MAY 27 2017


NOTE: "FAIR" INDICATES FEW OR NO CLOUDS BELOW 12,000 FEET WITH NO
SIGNIFICANT WEATHER AND/OR OBSTRUCTIONS TO VISIBILITY. N/A MEANS
CURRENT SKY AND/OR WEATHER CONDITIONS ARE NOT AVAILABLE.

MNZ060>063-068>070-271200-
   Twin Cities Metro

CITY           SKY/WX    TMP DP  RH WIND       PRES   REMARKS
TWIN CITIES    CLEAR     55  47  74 SW3       29.88R
ST PAUL        CLEAR     51  50  96 CALM      29.87S
CRYSTAL        CLEAR     49  44  83 CALM      29.86S
BLAINE         CLEAR     52  52 100 CALM      29.87S
LAKEVILLE      CLEAR     48  46  93 CALM      29.87F
EDEN PRAIRIE   CLEAR     53  48  83 SW5       29.87R
SOUTH ST PAUL  CLEAR     55  47  74 CALM      29.86S
LAKE ELMO      FAIR      46  46 100 CALM      29.88S
$$
MNZ001>005-007-008-013>017-022>024-027-028-271200-
   Northwest Minnesota

CITY           SKY/WX    TMP DP  RH WIND       PRES   REMARKS
BEMIDJI        PTCLDY    47  43  85 SW3       29.81F
HALLOCK        CLOUDY    43  39  87 S9        29.75R
ROSEAU         PTCLDY    46  41  81 S6        29.76S
WARROAD        PTCLDY    46  43  87 S6        29.76S
THIEF RVR FALL CLEAR     47  41  80 S8        29.79S
CROOKSTON      CLEAR     46  41  81 S7        29.79S
FOSSTON        PTCLDY    45  39  81 S7        29.81S
DETROIT LAKES  MOCLDY    50  45  81 CALM      29.84F
MOORHEAD       CLEAR     50  43  76 S5        29.84R
PARK RAPIDS    CLOUDY    48  41  76 CALM      29.83S
MAHNOMEN       FAIR      47  42  82 S8        29.82S
$$
MNZ006-009>011-018-025>026-271200-
   North Central Minnesota

CITY           SKY/WX    TMP DP  RH WIND       PRES   REMARKS
BAUDETTE       CLOUDY    45  42  89 S6        29.77S
FLAG ISLAND    CLEAR     50  43  76 SW12      29.73S
INTL FALLS     CLOUDY    44  41  89 CALM      29.78S
WASKISH        CLOUDY    48  45  87 CALM      29.79S
BIG FORK       CLOUDY    45  41  87 CALM      29.81F
LONGVILLE      MOCLDY    46  45  93 CALM      29.84S
GRAND RAPIDS   MOCLDY    47  44  90 CALM      29.86R
CRANE LAKE     CLOUDY    37  37 100 CALM      29.82R
ORR            CLOUDY    46  41  81 CALM      29.79R
COOK           CLOUDY    41  39  93 CALM      29.82S
WALKER         FAIR      48  42  79 W5        29.83S
$$
MNZ012-019>021-037-271200-
   Northeast Minnesota

CITY           SKY/WX    TMP DP  RH WIND       PRES   REMARKS
DULUTH         PTCLDY    49  44  83 NW6       29.83R
ELY            CLOUDY    45  43  93 CALM      29.81S
HIBBING        CLOUDY    40  40 100 CALM      29.82R
EVELETH        MOCLDY    40  38  94 CALM      29.84R
DULUTH HARBOR  CLEAR     48  46  93 S8        29.83S
TWO HARBORS    CLEAR     54  46  76 CALM      29.79S
SILVER BAY     CLOUDY    41  41 100 CALM      29.79R
GRAND MARAIS     N/A     41  40  96 CALM      29.80R
G MARAIS ARPRT CLEAR     45  43  93 CALM      29.81R
$$
MNZ029>031-032-039>041-046>048-054>057-064-271200-
   West Central Minnesota

CITY           SKY/WX    TMP DP  RH WIND       PRES   REMARKS
FERGUS FALLS   CLOUDY    50  45  81 S5        29.84S
WHEATON        MOCLDY    52  45  76 S5        29.88R
MORRIS         MOCLDY    48  46  93 S5        29.86F
ALEXANDRIA     CLOUDY    49  45  86 CALM      29.87F
ELBOW LAKE     FAIR      47  45  91 CALM      29.86F
WADENA         CLOUDY    48  43  81 CALM      29.85S
GLENWOOD       CLOUDY    50  45  81 SW5       29.87F
APPLETON       MOCLDY    48  45  87 CALM      29.87F
BENSON         CLOUDY    46  45  93 CALM      29.89S
ORTONVILLE     MOCLDY    50  45  81 S5        29.88R
MADISON        CLOUDY    52  46  82 CALM      29.88S
WILLMAR        FAIR      48  46  93 CALM      29.89S
$$
MNZ033>034-036-042>043-049>051-058-059-271200-
   Central Minnesota

CITY           SKY/WX    TMP DP  RH WIND       PRES   REMARKS
ST CLOUD       CLEAR     45  45 100 CALM      29.87S
SAUK CENTRE    FAIR      47  43  87 CALM      29.88S
PAYNESVILLE    PTCLDY    46  46 100 W3        29.88F
AITKIN         MOCLDY    48  45  87 SW3       29.84S
PINE RIVER     MOCLDY    45  45 100 CALM      29.88S
BRAINERD       CLOUDY    45  44  97 S3        29.86S
STAPLES        CLOUDY    48  43  81 CALM      29.85F
LONG PRAIRIE   FAIR      45  43  93 CALM      29.88S
LITTLE FALLS   PTCLDY    45  43  93 CALM      29.87R
LITCHFIELD     PTCLDY    54  48  82 CALM      29.88S
BUFFALO        CLEAR     51  45  81 CALM      29.88S
MAPLE LAKE     CLEAR     47  46  93 CALM      29.88S
HUTCHINSON     CLOUDY    51  49  90 CALM      29.89S
$$
MNZ037-044-045-052-053-271200-
   East Central Minnesota

CITY           SKY/WX    TMP DP  RH WIND       PRES   REMARKS
PRINCETON      CLEAR     45  43  93 CALM      29.87S
MORA           CLEAR     45  45 100 CALM      29.88R
CAMBRIDGE      CLEAR     52  45  76 CALM      29.85S
RUSH CITY      PTCLDY    48  46  93 W3        29.87R
MOOSE LAKE     CLEAR     43  41  93 CALM      29.84R
HINCKLEY       FAIR      46  46 100 CALM      29.86R
CLOQUET        CLEAR     48  43  81 W6        29.84R
MCGREGOR       PTCLDY    46  45  93 CALM      29.86R
$$
MNZ071>073-080-081-089-090-097-098-271200-
   Southwest Minnesota

CITY           SKY/WX    TMP DP  RH WIND       PRES   REMARKS
MONTEVIDEO     PTCLDY    52  45  76 CALM      29.88S
CANBY          CLOUDY    54  49  81 CALM      29.90R
MARSHALL       CLOUDY    55  48  77 CALM      29.90R
REDWOOD FALLS  CLOUDY    53  47  79 CALM      29.88S
OLIVIA         CLOUDY    52  46  82 W3        29.87F
PIPESTONE      CLOUDY    55  45  67 CALM      29.90S
WINDOM         CLEAR     48  45  87 CALM      29.90S
WORTHINGTON    PTCLDY    50  44  80 CALM      29.91S
JACKSON        CLEAR     48  45  87 CALM      29.91R
TRACY          MOCLDY    56  49  79 SW5       29.89F
SLAYTON        CLOUDY    52  47  82 CALM      29.91S
$$
MNZ065>067-074>077-082>085-091>093-271200-
   South Central Minnesota

CITY           SKY/WX    TMP DP  RH WIND       PRES   REMARKS
MANKATO          N/A     51  47  86 CALM      29.90R
NEW ULM        PTCLDY    48  46  93 SW3       29.89R
ST JAMES       PTCLDY    52  46  82 CALM      29.90S
FAIRMONT       CLEAR     51  45  79 CALM      29.90S
GLENCOE        CLEAR     53  50  92 CALM      29.87S
FARIBAULT      PTCLDY    48  48 100 CALM      29.89S
OWATONNA       CLEAR     48  46  93 CALM      29.89R
WASECA         CLEAR     50  45  81 CALM      29.90S
ALBERT LEA     CLEAR     52  50  93 CALM      29.89R
$$
MNZ078>079-086>088-094>096-271200-
   Southeast Minnesota

CITY           SKY/WX    TMP DP  RH WIND       PRES   REMARKS
ROCHESTER      CLEAR     53  48  83 W5        29.89S
RED WING       CLEAR     48  46  93 N3        29.86S
STANTON        CLEAR     50  47  88 SW3       29.86S
DODGE CENTER   CLEAR     52  46  82 CALM      29.88S
WINONA         CLEAR     54  52  94 CALM      29.88S FOG
AUSTIN         CLEAR     48  46  93 CALM      29.88S
PRESTON        FOG       53  51  95 CALM      29.89F VSB 1/4
$$
ABBREVIATIONS USED IN REMARKS
   TC - TEMPERATURES IN CELSIUS
  WCI - WIND CHILL INDEX
   HX - HEAT INDEX
  VSB - VISIBILITY
$$




USA.gov is the U.S. government's official web portal to all federal, state and local government web resources and services.